Aberdeen, SD

1:06 PM CDT on August 29, 2016 (GMT -0500)
Aberdeen Regional

Weather History for KABR - April, 2014

Change the Weather History Date:

Saturday, April 12, 2014

  Actual Average Record
Temperature  
Mean Temperature 52 °F 43 °F  
Max Temperature 67 °F 55 °F 85 °F (1931)
Min Temperature 37 °F 30 °F 9 °F (1961)
Degree Days  
Heating Degree Days 13 22  
Month to date heating degree days 308 300  
Since 1 July heating degree days 8689 7851  
Cooling Degree Days 0 0  
Month to date cooling degree days 0 0  
Year to date cooling degree days 0 0  
Growing Degree Days 2 (Base 50)    
Moisture  
Dew Point 37 °F    
Average Humidity 61    
Maximum Humidity 92    
Minimum Humidity 29    
Precipitation  
Precipitation 0.00 in 0.05 in 1.26 in (1970)
Month to date precipitation 0.09 0.57  
Year to date precipitation 1.30 2.75  
Snow  
Snow 0.00 in - - ()
Month to date snowfall T  
Since 1 July snowfall 32.5  
Snow Depth 0.00 in    
Sea Level Pressure  
Sea Level Pressure 29.75 in    
Wind  
Wind Speed 16 mph (North)    
Max Wind Speed 30 mph    
Max Gust Speed 37 mph    
Visibility 10 miles    
Events      
T = Trace of Precipitation, MM = Missing Value Source: NWS Daily Summary

Daily Weather History Graph

Daily Weather History Graph

Search for Another Location

Airport or City:

Trip Planner

Search our weather history database for the weather conditions in past years. The results will help you decide how hot, cold, wet, or windy it might be!

Date:

Astronomy

Apr. 12, 2014 Rise Set
Actual Time 6:53 AM CDT 8:16 PM CDT
Civil Twilight 6:22 AM CDT 8:46 PM CDT
Nautical Twilight 5:45 AM CDT 9:23 PM CDT
Astronomical Twilight 5:06 AM CDT 10:03 PM CDT
Moon 5:49 PM CDT (4/12) 5:28 AM CDT (4/12)
Length of Visible Light 14h 23m
Length of Day
13h 22m
Waxing Gibbous, 93% of the Moon is Illuminated
Apr 12
Waxing Gibbous
Apr 15
Full
Apr 22
Last Quarter
Apr 29
New
May 6
First Quarter

Hourly Weather History & Observations

Time (CDT) Temp. Windchill Dew Point Humidity Pressure Visibility Wind Dir Wind Speed Gust Speed Precip Events Conditions
12:53 AM 46.9 °F - 37.0 °F 68% 29.83 in 10.0 mi NE 24.2 mph 31.1 mph N/A   Overcast
1:53 AM 45.0 °F 36.2 °F 37.9 °F 76% 29.81 in 10.0 mi NE 24.2 mph 31.1 mph N/A   Overcast
2:53 AM 45.0 °F 36.2 °F 37.9 °F 76% 29.75 in 10.0 mi ENE 24.2 mph 34.5 mph N/A   Mostly Cloudy
3:53 AM 44.1 °F 35.4 °F 37.0 °F 76% 29.70 in 10.0 mi ENE 21.9 mph 28.8 mph N/A   Clear
4:53 AM 43.0 °F 36.4 °F 37.0 °F 80% 29.70 in 10.0 mi NE 12.7 mph - N/A   Clear
5:53 AM 39.9 °F 32.9 °F 36.0 °F 86% 29.68 in 10.0 mi NNE 11.5 mph - N/A   Clear
6:53 AM 37.9 °F 32.7 °F 35.1 °F 89% 29.70 in 10.0 mi NNE 6.9 mph - N/A   Clear
7:53 AM 39.9 °F 35.1 °F 36.0 °F 86% 29.72 in 10.0 mi North 6.9 mph - N/A   Clear
8:53 AM 45.0 °F 41.8 °F 37.9 °F 76% 29.73 in 10.0 mi ENE 5.8 mph - N/A   Clear
9:53 AM 50.0 °F - 37.9 °F 63% 29.71 in 10.0 mi SE 9.2 mph - N/A   Clear
10:53 AM 55.0 °F - 37.9 °F 53% 29.72 in 10.0 mi Variable 3.5 mph - N/A   Clear
11:53 AM 59.0 °F - 39.0 °F 48% 29.72 in 10.0 mi Variable 3.5 mph - N/A   Clear
12:53 PM 62.1 °F - 39.9 °F 44% 29.71 in 10.0 mi NW 15.0 mph 19.6 mph N/A   Partly Cloudy
1:53 PM 64.9 °F - 37.9 °F 37% 29.70 in 10.0 mi NW 11.5 mph - N/A   Clear
2:53 PM 64.0 °F - 37.0 °F 37% 29.69 in 10.0 mi WNW 12.7 mph - N/A   Partly Cloudy
3:53 PM 64.9 °F - 34.0 °F 32% 29.70 in 10.0 mi NNW 12.7 mph 20.7 mph N/A   Mostly Cloudy
4:53 PM 66.0 °F - 33.1 °F 29% 29.70 in 10.0 mi NW 18.4 mph - N/A   Partly Cloudy
5:53 PM 64.0 °F - 35.1 °F 34% 29.71 in 10.0 mi NNW 24.2 mph 29.9 mph N/A   Clear
6:53 PM 57.9 °F - 37.0 °F 46% 29.75 in 10.0 mi NNW 25.3 mph 29.9 mph N/A   Scattered Clouds
7:53 PM 50.0 °F - 37.0 °F 61% 29.80 in 10.0 mi NNW 25.3 mph 32.2 mph N/A   Mostly Cloudy
8:53 PM 46.0 °F 37.4 °F 35.1 °F 66% 29.84 in 10.0 mi North 25.3 mph 33.4 mph N/A   Mostly Cloudy
9:53 PM 44.1 °F 35.4 °F 35.1 °F 71% 29.87 in 10.0 mi North 21.9 mph - N/A   Scattered Clouds
10:53 PM 43.0 °F 35.4 °F 35.1 °F 74% 29.89 in 10.0 mi North 16.1 mph - N/A   Mostly Cloudy
11:53 PM 43.0 °F 34.5 °F 35.1 °F 74% 29.88 in 10.0 mi North 19.6 mph - N/A   Overcast